# Land Stadt Wetter Temperatur Luftdruck Luftfeuchtigkeit Sichtweite Windgeschwindigkeit Windrichtung Ortszeit
1 br Manaus Clear 27 1012 89 10000 4 0 02.08.2018 14:21
2 do Santo Domingo Clouds 23 1013 94 10000 0 0 02.08.2018 14:21
3 es Madrid Clear 21 1000 45 10000 6 0 02.08.2018 14:23
4 gb Manchester Clouds 16 1017 62 10000 4 0 02.08.2018 14:21
5 de Nürnberg Clouds 18 1018 76 10000 4 0 02.08.2018 14:21
6 at Innsbruck Clouds 15 1019 79 10000 4 0 02.08.2018 14:23
7 ch Bern Clouds 18 1019 52 10000 9 0 02.08.2018 14:23
8 de Dresden Clouds 22 1009 59 10000 7 0 02.08.2018 14:22
9 de Frankfurt Clouds 18 1017 72 10000 4 0 02.08.2018 14:22
10 de Braunschweig Clouds 18 1017 76 10000 4 0 02.08.2018 14:21
11 bo La Paz Clear 7 1037 67 10000 4 0 02.08.2018 14:22
12 bs Nassau Clouds 23 1014 88 10000 4 0 02.08.2018 14:22
13 mx Mexiko Stadt Clouds 18 1025 59 10000 0 0 02.08.2018 14:21
14 it Rom Clear 23 1017 47 10000 6 0 02.08.2018 14:23
15 tr Istanbul Clouds 21 1015 67 10000 20 10 02.08.2018 14:23
16 qa Doha Clear 39 1002 30 10000 26 10 02.08.2018 14:23
17 gl Nuuk Clouds -1 1009 93 10000 11 10 02.08.2018 14:22
18 au Darwin Clear 29 1011 65 10000 15 20 02.08.2018 14:22
19 us Fairbanks Rain 9 1001 92 10000 13 20 02.08.2018 14:23
20 gr Athen Clouds 27 1014 41 10000 14 24 02.08.2018 14:22
21 nz Wellington Clouds 11 998 76 10000 17 30 02.08.2018 14:23
22 ch Andermatt Clouds 10 1019 100 3140 2 34 02.08.2018 14:23
23 bg Warna Clouds 25 1017 44 10000 32 40 02.08.2018 14:21
24 at Wien Clouds 18 1017 85 10000 7 40 02.08.2018 14:22
25 ru Anadyr Clear 0 1024 93 10000 7 40 02.08.2018 14:23
26 cl Santiago Clouds 11 985 66 10000 3 47 02.08.2018 14:23
27 de Hamburg Rain 17 1017 78 10000 7 50 02.08.2018 14:21
28 it Mailand Clouds 17 1017 75 10000 9 60 02.08.2018 14:21
29 ma Casablanca Clouds 21 1016 73 6000 11 60 02.08.2018 14:23
30 de Flensburg Clouds 18 1018 77 10000 16 61 02.08.2018 14:21
31 ck Avarua Clouds 25 1016 88 10000 11 70 02.08.2018 14:22
32 ar Esquel Clouds 0 1029 83 10000 8 73 02.08.2018 14:22
33 af Kabul Clear 28 1006 19 10000 5 77 02.08.2018 14:21
34 es Tarifa Clear 20 1018 74 10000 17 78 02.08.2018 14:21
35 us Honolulu Clouds 23 1019 77 10000 20 80 02.08.2018 14:22
36 id Jakarta Haze 29 1008 75 5000 13 80 02.08.2018 14:22
37 gb Glasgow Clouds 14 1018 74 10000 13 80 02.08.2018 14:21
38 de Hiddensee Clouds 14 1018 92 10000 21 85 02.08.2018 14:21
39 it Palermo Clouds 24 999 56 10000 11 89 02.08.2018 14:22
40 ru Jakutsk Clear 18 1016 25 10000 14 90 02.08.2018 14:22
41 fr Nizza Clouds 20 1017 77 10000 15 90 02.08.2018 14:22
42 de Helgoland Rain 14 1018 92 10000 14 93 02.08.2018 14:22
43 de Emden Clouds 18 1017 85 10000 20 94 02.08.2018 14:21
44 gb London Clouds 17 1017 67 10000 10 96 02.08.2018 14:22
45 ph Manila Clouds 28 1009 90 9000 10 98 02.08.2018 14:21
46 jp Tokio Clouds 20 1016 62 10000 19 100 02.08.2018 14:22
47 no Oslo Clouds 24 1020 54 10000 11 100 02.08.2018 14:23
48 de Oberstdorf Clouds 14 1018 70 10000 2 103 02.08.2018 14:21
49 se Stockholm Clear 25 1020 54 10000 11 110 02.08.2018 14:23
50 in Nagpur Haze 41 998 40 5000 7 110 02.08.2018 14:21
51 de Bremen Clouds 16 1017 90 10000 9 110 02.08.2018 14:22
52 in Jagatsukh Clouds 20 1012 50 7932 4 113 02.08.2018 14:22
53 ua Kiew Clear 22 997 33 10000 17 117 02.08.2018 14:21
54 cn Peking Clouds 14 1008 84 10000 4 118 02.08.2018 14:23
55 sb Honiara Clouds 27 1012 88 10000 12 119 02.08.2018 14:22
56 es Sevilla Clear 24 1016 50 10000 2 120 02.08.2018 14:22
57 fr Paris Clouds 17 1019 73 10000 9 120 02.08.2018 14:22
58 au Alice Springs Clouds 21 1019 37 10000 13 120 02.08.2018 14:21
59 tr Ankara Clouds 20 1011 49 10000 11 120 02.08.2018 14:23
60 vn Hanoi Rain 27 1006 89 10000 12 131 02.08.2018 14:21
61 de Stuttgart Clear 19 1018 66 10000 6 140 02.08.2018 14:22
62 et Addis Abeba Clouds 24 1027 46 10000 11 140 02.08.2018 14:23
63 de Hannover Clouds 19 1016 72 10000 6 140 02.08.2018 14:21
64 bg Sofia Clouds 24 1018 33 10000 20 140 02.08.2018 14:21
65 pg Port Moresby Clouds 28 1008 83 10000 28 140 02.08.2018 14:21
66 za Kapstadt Clear 19 1023 73 10000 14 145 02.08.2018 14:22
67 ec San Cristobal Clouds 23 1011 86 10000 16 146 02.08.2018 14:22
68 fj Suva Clouds 25 1015 88 10000 9 150 02.08.2018 14:21
69 fr Bordeaux Clear 23 1013 40 10000 20 150 02.08.2018 14:21
70 ie Dublin Clouds 13 1015 76 10000 24 150 02.08.2018 14:21
71 is Reykjavik Clouds 11 1008 82 10000 22 150 02.08.2018 14:22
72 cn Shanghai Clouds 23 1010 91 10000 25 150 02.08.2018 14:21
73 cd Kisangani Clouds 32 1012 47 10000 1 152 02.08.2018 14:23
74 es Barcelona Clear 21 1018 62 10000 11 153 02.08.2018 14:22
75 de Berlin Clouds 19 1003 84 10000 11 160 02.08.2018 14:21
76 mg Antananarivo Clouds 21 1022 49 10000 17 160 02.08.2018 14:21
77 sa Riad Clear 41 1004 9 10000 26 163 02.08.2018 14:21
78 ru Werchojansk Clouds 19 1016 32 10000 16 168 02.08.2018 14:22
79 mx Veracruz Clouds 29 1004 63 10000 2 169 02.08.2018 14:21
80 us Death Valley Clear 23 1004 32 10000 7 171 02.08.2018 14:22
81 us Denver Clouds 11 1000 48 10000 4 174 02.08.2018 14:21
82 au Perth Clouds 18 1019 92 10000 15 180 02.08.2018 14:21
83 uy Montevideo Clouds 9 1026 76 10000 27 190 02.08.2018 14:22
84 de München Clouds 15 1020 79 10000 2 198 02.08.2018 14:21
85 ru Surgut Clouds 8 1010 36 10000 29 200 02.08.2018 14:23
86 us Miami Clouds 26 1013 78 10000 6 200 02.08.2018 14:23
87 fi Helsinki Clouds 21 1018 64 10000 14 203 02.08.2018 14:21
88 th Bangkok Rain 28 1007 72 10000 18 206 02.08.2018 14:21
89 de Torfhaus Clouds 17 1017 70 10000 6 208 02.08.2018 14:22
90 ke Nairobi Rain 22 1024 68 10000 7 210 02.08.2018 14:22
91 de Köln Clouds 15 1017 80 10000 6 220 02.08.2018 14:21
92 de Kassel Clouds 18 1017 77 10000 9 220 02.08.2018 14:21
93 us Las Vegas Clear 21 1003 28 10000 39 220 02.08.2018 14:21
94 ru Amderma Clouds 0 998 94 4518 42 221 02.08.2018 14:23
95 de Magdeburg Clouds 24 1017 73 10000 4 221 02.08.2018 14:22
96 ar Buenos Aires Clear 3 1030 76 10000 29 225 02.08.2018 14:22
97 ad Andorra la Vella Clouds 15 1019 63 10000 6 225 02.08.2018 14:22
98 us Tucson Clear 21 1011 25 10000 7 230 02.08.2018 14:21
99 es Palma de Mallorca Clouds 24 1018 56 10000 24 230 02.08.2018 14:22
100 ma Marrakesch Clouds 22 1017 60 8000 7 240 02.08.2018 14:23
101 ru Moskau Clouds 23 1027 27 10000 15 244 02.08.2018 14:22
102 mv Male Clouds 32 1007 74 10000 33 250 02.08.2018 14:23
103 au Sydney Clouds 14 1025 83 10000 9 250 02.08.2018 14:22
104 kr Seoul Clear 19 1014 77 10000 4 250 02.08.2018 14:21
105 us Los Angeles Clouds 13 1017 85 10000 19 260 02.08.2018 14:22
106 mn Uliastai Clouds 19 1010 11 10000 10 261 02.08.2018 14:23
107 de Freiburg Clouds 19 1017 66 10000 2 265 02.08.2018 14:22
108 de Trier Clouds 19 1018 71 10000 10 268 02.08.2018 14:21
109 no Hammerfest Clouds 4 1026 70 10000 28 270 02.08.2018 14:22
110 in Mumbai Haze 32 1003 74 4000 19 270 02.08.2018 14:22
111 tr Alanya Clear 24 1010 39 10000 33 274 02.08.2018 14:22
112 bo Potisi Clear 5 1020 19 10000 11 276 02.08.2018 14:22
113 pe Cusco Clear 3 1035 81 10000 6 280 02.08.2018 14:23
114 ae Dubai Clear 36 1001 46 10000 13 280 02.08.2018 14:21
115 pt Lissabon Clear 18 1019 70 10000 7 280 02.08.2018 14:22
116 cn Lhasa Clouds 21 999 27 10000 8 286 02.08.2018 14:22
117 us Chicago Clouds 17 1009 79 10000 24 300 02.08.2018 14:23
118 iq Bagdad Clouds 32 1006 29 10000 22 310 02.08.2018 14:22
119 ca Montreal Clear 13 1012 70 10000 6 310 02.08.2018 14:22
120 eg Kairo Clouds 31 1012 25 10000 17 310 02.08.2018 14:22
121 us Nome Clear 4 1008 76 10000 11 330 02.08.2018 14:23
122 fi Rovaniemi Clear 9 1027 42 10000 17 330 02.08.2018 14:21
123 jp Nagasaki Clear 25 1012 61 10000 24 340 02.08.2018 14:21
124 mn Ulaanbaatar Clouds 16 1015 27 10000 25 340 02.08.2018 14:23
125 es Las Palmas de Gran Canaria Clear 22 1022 70 10000 23 351 02.08.2018 14:21
126 us New York Clear 18 1010 64 10000 14 352 02.08.2018 14:22
127 ar Ushuaia Clouds 2 1028 93 10000 6 360 02.08.2018 14:22
128 br Rio de Janeiro Clouds 24 1017 84 10000 7 360 02.08.2018 14:22